FW5810 Weather Reports


Display with metric or nautical units.
time (UTC)temp
F
wind
direction
speed
MPH
gust
MPH
rain 1hr
in
rain 24hr
in
rain mn
in
humidity
%
barometer
mb
20260902161640 88 281 5.0 5.0 0.00 0.00 0.00 64 1017.5
20260902161136 87 309 1.0 3.0 0.00 0.00 0.00 65 1017.6
20260902160632 87 266 3.0 4.0 0.00 0.00 0.00 66 1017.6
20260902160127 88 276 7.0 8.0 0.00 0.00 0.00 65 1017.6
20260902155625 87 256 3.0 4.0 0.00 0.00 0.00 66 1017.8
20260902155124 87 220 2.0 4.0 0.00 0.00 0.00 68 1017.7
20260902154619 88 301 5.0 5.0 0.00 0.00 0.00 65 1017.9
20260902154114 87 237 2.0 5.0 0.00 0.00 0.00 67 1017.9
20260902153613 87 121 1.0 3.0 0.00 0.00 0.00 67 1017.7
20260902153109 86 262 5.0 5.0 0.00 0.00 0.00 68 1017.6
20260902152605 86 267 4.0 4.0 0.00 0.00 0.00 71 1017.9
20260902152100 87 239 5.0 8.0 0.00 0.00 0.00 69 1017.8
20260902151556 86 65 0.0 1.0 0.00 0.00 0.00 70 1017.8
20260902151055 86 208 3.0 5.0 0.00 0.00 0.00 69 1017.8
20260902150550 85 280 2.0 5.0 0.00 0.00 0.00 70 1017.8
20260902150046 85 330 2.0 4.0 0.00 0.00 0.00 71 1017.6
20260902145541 84 249 0.0 3.0 0.00 0.00 0.00 73 1017.9
20260902145040 83 314 2.0 4.0 0.00 0.00 0.00 74 1017.6
20260902144537 83 264 4.0 7.0 0.00 0.00 0.00 74 1017.6
20260902144037 83 250 3.0 3.0 0.00 0.00 0.00 75 1017.6
20260902143532 84 34 1.0 1.0 0.00 0.00 0.00 74 1017.7
20260902143028 84 223 2.0 7.0 0.00 0.00 0.00 75 1017.6
20260902142523 83 273 3.0 4.0 0.00 0.00 0.00 75 1017.5
20260902142019 83 213 4.0 5.0 0.00 0.00 0.00 75 1017.4
20260902141518 83 281 5.0 5.0 0.00 0.00 0.00 75 1017.6
20260902141014 82 235 2.0 8.0 0.00 0.00 0.00 76 1017.4
20260902140508 82 355 4.0 7.0 0.00 0.00 0.00 77 1017.4
20260902140003 82 115 1.0 4.0 0.00 0.00 0.00 79 1017.4
20260902135458 82 105 1.0 4.0 0.00 0.00 0.00 80 1017.4
20260902134958 81 193 1.0 5.0 0.00 0.00 0.00 81 1017.5
20260902134454 80 267 4.0 5.0 0.00 0.00 0.00 81 1017.3
20260902133953 80 139 3.0 3.0 0.00 0.00 0.00 82 1017.2
20260902133448 80 234 2.0 7.0 0.00 0.00 0.00 83 1017.3
20260902132943 79 113 2.0 5.0 0.00 0.00 0.00 84 1017.4
20260902132438 79 243 2.0 5.0 0.00 0.00 0.00 84 1017.2
20260902131933 79 184 2.0 7.0 0.00 0.00 0.00 84 1017.4
20260902131430 78 229 1.0 4.0 0.00 0.00 0.00 86 1017.4
20260902130930 78 252 3.0 4.0 0.00 0.00 0.00 86 1017.3
20260902130426 78 287 3.0 4.0 0.00 0.00 0.00 87 1017.4
20260902125925 77 107 1.0 1.0 0.00 0.00 0.00 88 1017.4
20260902125422 77 276 2.0 3.0 0.00 0.00 0.00 87 1017.4
20260902124917 77 106 1.0 1.0 0.00 0.00 0.00 88 1017.3
20260902124413 76 306 0.0 3.0 0.00 0.00 0.00 90 1017.5
20260902123908 75 147 0.0 0.0 0.00 0.00 0.00 92 1017.5
20260902123405 75 152 2.0 3.0 0.00 0.00 0.00 93 1017.5
20260902122903 75 232 0.0 3.0 0.00 0.00 0.00 93 1017.5
20260902122359 74 233 0.0 3.0 0.00 0.00 0.00 93 1017.4
20260902121854 74 232 1.0 1.0 0.00 0.00 0.00 95 1017.4
20260902121348 73 234 0.0 1.0 0.00 0.00 0.00 96 1017.3
20260902120843 73 230 1.0 1.0 0.00 0.00 0.00 96 1017.1
20260902120340 73 230 0.0 1.0 0.00 0.00 0.00 97 1017.4
20260902115834 73 230 0.0 1.0 0.00 0.00 0.00 97 1017.3
20260902115331 73 230 0.0 0.0 0.00 0.00 0.00 97 1017.3
20260902114827 73 230 0.0 1.0 0.00 0.00 0.00 98 1017.1
20260902114323 72 229 1.0 1.0 0.00 0.00 0.00 98 1016.9
20260902113822 72 206 0.0 0.0 0.00 0.00 0.00 98 1016.7
20260902113317 72 222 0.0 1.0 0.00 0.00 0.00 98 1016.6
20260902112812 72 222 1.0 3.0 0.00 0.00 0.00 98 1016.6
20260902112309 72 230 2.0 3.0 0.00 0.00 0.00 98 1016.7
20260902111803 72 227 1.0 1.0 0.00 0.00 0.00 98 1016.5
20260902111300 72 227 0.0 1.0 0.00 0.00 0.00 98 1016.5
20260902110755 72 227 0.0 0.0 0.00 0.00 0.00 98 1016.4
20260902110251 72 227 0.0 0.0 0.00 0.00 0.00 98 1016.7
20260902105751 72 227 0.0 0.0 0.00 0.00 0.00 98 1016.6
20260902105246 72 227 0.0 0.0 0.00 0.00 0.00 98 1016.6
20260902104742 72 227 0.0 1.0 0.00 0.00 0.00 98 1016.5
20260902104237 72 226 1.0 0.0 0.00 0.00 0.00 98 1016.3
20260902103736 72 225 0.0 1.0 0.00 0.00 0.00 98 1016.3
20260902103231 72 225 1.0 1.0 0.00 0.00 0.00 98 1016.4
20260902102727 72 221 0.0 1.0 0.00 0.00 0.00 98 1016.3
20260902102224 73 219 0.0 1.0 0.00 0.00 0.00 98 1016.4
20260902101719 72 219 1.0 1.0 0.00 0.00 0.00 98 1016.3
20260902101214 72 218 0.0 3.0 0.00 0.00 0.00 98 1016.4
20260902100713 72 221 1.0 1.0 0.00 0.00 0.00 98 1016.2
20260902100209 73 228 1.0 1.0 0.00 0.00 0.00 98 1016.4
20260902095708 72 240 1.0 4.0 0.00 0.00 0.00 98 1016.4
20260902095202 72 239 1.0 3.0 0.00 0.00 0.00 98 1016.4
20260902094657 72 198 1.0 4.0 0.00 0.00 0.00 99 1016.5
20260902094154 72 246 1.0 1.0 0.00 0.00 0.00 98 1016.5
20260902093653 72 225 0.0 1.0 0.00 0.00 0.00 98 1016.4
20260902093148 72 233 0.0 3.0 0.00 0.00 0.00 99 1016.6
20260902092643 72 245 0.0 3.0 0.00 0.00 0.00 98 1016.6
20260902092142 72 218 0.0 1.0 0.00 0.00 0.00 98 1016.6
20260902091637 72 237 1.0 1.0 0.00 0.00 0.00 99 1016.9
20260902091134 71 237 0.0 1.0 0.00 0.00 0.00 98 1017.0
20260902090629 71 237 1.0 1.0 0.00 0.00 0.00 99 1016.9
20260902090128 71 155 0.0 0.0 0.00 0.00 0.00 98 1016.7
20260902085624 71 155 0.0 0.0 0.00 0.00 0.00 98 1016.7
20260902085118 71 155 0.0 0.0 0.00 0.00 0.00 98 1016.6
20260902084615 71 155 0.0 0.0 0.00 0.00 0.00 98 1016.6
20260902084111 71 155 0.0 0.0 0.00 0.00 0.00 98 1016.7
20260902083605 71 155 0.0 0.0 0.00 0.00 0.00 98 1016.7
20260902083105 71 155 0.0 1.0 0.00 0.00 0.00 98 1016.6
20260902082601 71 155 0.0 0.0 0.00 0.00 0.00 98 1016.5
20260902082057 71 155 0.0 0.0 0.00 0.00 0.00 98 1016.6
20260902081554 71 155 0.0 0.0 0.00 0.00 0.00 98 1016.7
20260902081053 71 155 0.0 0.0 0.00 0.00 0.00 98 1016.6
20260902080548 71 155 0.0 0.0 0.00 0.00 0.00 98 1016.4
20260902080045 71 155 0.0 0.0 0.00 0.00 0.00 98 1016.5
20260902075544 71 155 0.0 0.0 0.00 0.00 0.00 98 1016.5
20260902075040 71 155 0.0 0.0 0.00 0.00 0.00 98 1016.6
20260902074536 71 155 0.0 0.0 0.00 0.00 0.00 98 1016.6
20260902074031 71 155 0.0 0.0 0.00 0.00 0.00 98 1016.6
20260902073526 71 155 0.0 0.0 0.00 0.00 0.00 98 1016.5
20260902073023 71 155 0.0 0.0 0.00 0.00 0.00 98 1016.7
20260902072518 72 155 0.0 0.0 0.00 0.00 0.00 98 1016.6
20260902072015 72 155 0.0 0.0 0.00 0.00 0.00 98 1016.5
20260902071514 71 155 0.0 0.0 0.00 0.00 0.00 97 1016.7
20260902071011 72 155 1.0 1.0 0.00 0.00 0.00 97 1016.6
20260902070506 72 155 0.0 0.0 0.00 0.00 0.00 97 1017.0
20260902070007 72 155 0.0 0.0 0.00 0.00 0.00 97 1016.9
20260902065500 72 157 0.0 0.0 0.00 0.00 0.00 97 1017.0
20260902064955 72 157 0.0 0.0 0.00 0.00 0.00 97 1016.9
20260902064450 71 241 0.0 0.0 0.00 0.00 0.00 97 1016.9
20260902063946 71 241 0.0 0.0 0.00 0.00 0.00 97 1017.0
20260902063445 72 241 0.0 1.0 0.00 0.00 0.00 97 1017.1
20260902062941 72 241 0.0 0.0 0.00 0.00 0.00 97 1016.9
20260902062440 72 241 0.0 0.0 0.00 0.00 0.00 97 1017.1
20260902061935 71 241 0.0 0.0 0.00 0.00 0.00 97 1017.0
20260902061430 72 241 0.0 0.0 0.00 0.00 0.00 97 1017.0
20260902060926 72 241 0.0 1.0 0.00 0.00 0.00 97 1017.1
20260902060422 72 241 0.0 0.0 0.00 0.00 0.00 97 1016.9
20260902055918 72 241 0.0 1.0 0.00 0.00 0.00 97 1017.0
20260902055414 72 241 0.0 0.0 0.00 0.00 0.00 97 1017.1
20260902054909 72 241 0.0 0.0 0.00 0.00 0.00 97 1016.9
20260902054404 72 241 0.0 0.0 0.00 0.00 0.00 97 1017.1
20260902053859 72 241 0.0 0.0 0.00 0.00 0.00 97 1017.0
20260902053354 72 241 0.0 1.0 0.00 0.00 0.00 96 1017.1
20260902052853 72 241 0.0 0.0 0.00 0.00 0.00 96 1016.9
20260902052349 72 241 0.0 0.0 0.00 0.00 0.00 96 1016.5
20260902051843 72 241 0.0 0.0 0.00 0.00 0.00 96 1016.7
20260902051337 72 241 0.0 0.0 0.00 0.00 0.00 96 1016.7
20260902050832 72 241 0.0 1.0 0.00 0.00 0.00 96 1016.6
20260902050331 72 241 0.0 0.0 0.00 0.00 0.00 96 1016.5
20260902045826 73 241 0.0 0.0 0.00 0.00 0.00 95 1016.5
20260902045322 73 241 0.0 0.0 0.00 0.00 0.00 95 1016.5
20260902044819 73 241 0.0 0.0 0.00 0.00 0.00 95 1016.3
20260902044314 73 241 0.0 0.0 0.00 0.00 0.00 95 1016.6
20260902043814 73 241 0.0 0.0 0.00 0.00 0.00 95 1016.4
20260902043309 73 241 0.0 0.0 0.00 0.00 0.00 94 1016.6
20260902042809 73 241 0.0 0.0 0.00 0.00 0.00 94 1016.4
20260902042308 73 241 0.0 1.0 0.00 0.00 0.00 94 1016.6
20260902041759 73 241 1.0 3.0 0.00 0.00 0.00 93 1016.5
20260902041259 74 242 1.0 1.0 0.00 0.00 0.00 93 1016.5
20260902040758 74 241 0.0 1.0 0.00 0.00 0.00 92 1016.6
20260902040254 75 241 0.0 0.0 0.00 0.00 0.00 92 1016.4
20260902035752 75 242 1.0 1.0 0.00 0.00 0.00 92 1016.5
20260902035248 74 228 1.0 3.0 0.00 0.00 0.00 93 1016.5
20260902034746 74 270 0.0 1.0 0.00 0.00 0.00 93 1016.5
20260902034242 74 271 1.0 1.0 0.00 0.00 0.00 92 1016.5
20260902033739 74 271 1.0 1.0 0.00 0.00 0.00 92 1016.3
20260902033235 75 271 0.0 0.0 0.00 0.00 0.00 92 1016.4
20260902032733 75 271 0.0 1.0 0.00 0.00 0.00 90 1016.2
20260902032229 75 271 1.0 1.0 0.00 0.00 0.00 89 1016.4
20260902031723 75 270 2.0 4.0 0.00 0.00 0.00 90 1016.4
20260902031218 75 264 1.0 3.0 0.00 0.00 0.00 90 1016.5
20260902030714 75 243 0.0 1.0 0.00 0.00 0.00 89 1016.4
20260902030214 76 251 0.0 1.0 0.00 0.00 0.00 89 1016.6
20260902025713 75 216 1.0 3.0 0.00 0.00 0.00 90 1016.3
20260902025208 75 258 3.0 3.0 0.00 0.00 0.00 91 1016.3
20260902024703 74 256 2.0 1.0 0.00 0.00 0.00 92 1016.3
20260902024158 74 256 1.0 1.0 0.00 0.00 0.00 93 1016.2
20260902023654 74 256 1.0 1.0 0.00 0.00 0.00 93 1016.2
20260902023149 74 255 1.0 1.0 0.00 0.00 0.00 93 1016.3
20260902022648 74 256 0.0 0.0 0.00 0.00 0.00 93 1016.2
20260902022144 74 256 0.0 0.0 0.00 0.00 0.00 92 1016.2
20260902021640 74 256 1.0 1.0 0.00 0.00 0.00 92 1016.3
20260902021134 74 256 0.0 0.0 0.00 0.00 0.00 91 1016.3
20260902020631 75 256 0.0 0.0 0.00 0.00 0.00 90 1016.1
20260902020126 75 256 0.0 0.0 0.00 0.00 0.00 89 1015.9
20260902015622 75 256 0.0 0.0 0.00 0.00 0.00 89 1016.2
20260902015118 75 256 0.0 0.0 0.00 0.00 0.00 89 1016.1
20260902014613 75 256 0.0 0.0 0.00 0.00 0.00 88 1016.1
20260902014109 75 256 0.0 0.0 0.00 0.00 0.00 87 1016.1
20260902013608 76 256 0.0 0.0 0.00 0.00 0.00 87 1016.1
20260902013104 76 256 0.0 0.0 0.00 0.00 0.00 86 1016.0
20260902012559 76 256 0.0 0.0 0.00 0.00 0.00 86 1016.1
20260902012054 76 256 0.0 0.0 0.00 0.00 0.00 86 1016.0
20260902011550 76 256 0.0 0.0 0.00 0.00 0.00 86 1015.9
20260902011049 77 256 0.0 0.0 0.00 0.00 0.00 85 1015.9
20260902010549 77 256 0.0 1.0 0.00 0.00 0.00 85 1015.8
20260902010045 77 256 0.0 0.0 0.00 0.00 0.00 84 1015.8
20260902005542 77 256 1.0 1.0 0.00 0.00 0.00 84 1015.7
20260902005039 77 302 0.0 1.0 0.00 0.00 0.00 83 1015.4
20260902004538 78 246 0.0 0.0 0.00 0.00 0.00 82 1015.5
20260902004033 78 246 0.0 3.0 0.00 0.00 0.00 81 1015.5
20260902003529 78 211 1.0 1.0 0.00 0.00 0.00 80 1015.5
20260902003024 79 140 0.0 0.0 0.00 0.00 0.00 80 1015.4
20260902002520 79 218 2.0 1.0 0.00 0.00 0.00 79 1015.5
20260902002015 79 214 0.0 0.0 0.00 0.00 0.00 79 1015.5
20260902001509 79 214 0.0 0.0 0.00 0.00 0.00 78 1015.4
20260902001004 80 209 0.0 0.0 0.00 0.00 0.00 77 1015.4
20260902000459 80 209 0.0 0.0 0.00 0.00 0.00 76 1015.5
20260901235954 80 210 1.0 3.0 0.00 0.00 0.00 75 1015.4
20260901235448 81 262 1.0 1.0 0.00 0.00 0.00 75 1015.5
20260901234944 81 262 0.0 1.0 0.00 0.00 0.00 74 1015.6
20260901234438 81 315 1.0 3.0 0.00 0.00 0.00 74 1015.7
20260901233933 81 282 2.0 4.0 0.00 0.00 0.00 74 1015.7
20260901233428 81 129 0.0 1.0 0.00 0.00 0.00 73 1015.8
20260901232925 82 273 0.0 1.0 0.00 0.00 0.00 73 1015.7
20260901232425 82 283 2.0 3.0 0.00 0.00 0.00 72 1015.9
20260901231920 82 281 1.0 5.0 0.00 0.00 0.00 72 1015.8
20260901231416 82 275 3.0 4.0 0.00 0.00 0.00 71 1015.9
20260901230912 82 274 4.0 7.0 0.00 0.00 0.00 72 1016.0
20260901230412 82 266 3.0 7.0 0.00 0.00 0.00 72 1016.1
20260901225907 82 249 0.0 4.0 0.00 0.00 0.00 72 1016.1
20260901225406 82 285 3.0 8.0 0.00 0.00 0.00 71 1016.1
20260901224901 83 284 6.0 10.0 0.00 0.00 0.00 70 1016.0
20260901224358 83 231 3.0 7.0 0.00 0.00 0.00 70 1016.2
20260901223854 84 262 2.0 4.0 0.00 0.00 0.00 69 1016.2
20260901223349 85 273 5.0 7.0 0.00 0.00 0.00 67 1016.2
20260901222845 86 128 3.0 10.0 0.00 0.00 0.00 66 1016.3
20260901222341 86 345 6.0 11.0 0.00 0.00 0.00 64 1016.2
20260901221837 86 265 5.0 10.0 0.00 0.00 0.00 65 1016.1
20260901221332 86 217 5.0 10.0 0.00 0.00 0.00 66 1016.1
20260901220832 86 107 2.0 4.0 0.00 0.00 0.00 67 1016.2
20260901220331 86 208 4.0 7.0 0.00 0.00 0.00 67 1016.1
20260901215830 86 352 3.0 8.0 0.00 0.00 0.00 68 1016.2
20260901215329 86 198 1.0 8.0 0.00 0.00 0.00 68 1016.1
20260901214828 85 282 3.0 5.0 0.00 0.00 0.00 69 1016.1
20260901214327 86 238 8.0 11.0 0.00 0.00 0.00 66 1016.1
20260901213822 86 208 4.0 12.0 0.00 0.00 0.00 67 1016.0
20260901213322 87 164 4.0 7.0 0.00 0.00 0.00 65 1016.0
20260901212816 87 218 3.0 7.0 0.00 0.00 0.00 66 1016.1
20260901212312 86 264 4.0 12.0 0.00 0.00 0.00 67 1016.2
20260901211808 86 249 4.0 11.0 0.00 0.00 0.00 66 1016.2
20260901211304 87 242 7.0 10.0 0.00 0.00 0.00 65 1016.3
20260901210759 87 303 2.0 3.0 0.00 0.00 0.00 67 1016.2
20260901210254 87 208 3.0 7.0 0.00 0.00 0.00 65 1016.1
20260901205751 88 19 2.0 3.0 0.00 0.00 0.00 65 1016.2
20260901205250 88 224 6.0 8.0 0.00 0.00 0.00 64 1016.2
20260901204746 87 235 5.0 10.0 0.00 0.00 0.00 64 1016.1
20260901204242 87 188 3.0 7.0 0.00 0.00 0.00 66 1016.3
20260901203737 87 145 3.0 4.0 0.00 0.00 0.00 67 1016.3
20260901203236 86 226 1.0 5.0 0.00 0.00 0.00 67 1016.2
20260901202736 86 284 2.0 8.0 0.00 0.00 0.00 66 1016.4
20260901202232 86 317 3.0 8.0 0.00 0.00 0.00 66 1016.3
20260901201726 85 253 3.0 8.0 0.00 0.00 0.00 67 1016.4
20260901201221 86 202 4.0 10.0 0.00 0.00 0.00 65 1016.2
20260901200720 87 128 5.0 8.0 0.00 0.00 0.00 62 1016.0
20260901200216 88 257 7.0 10.0 0.00 0.00 0.00 61 1015.9
20260901195714 88 251 7.0 10.0 0.00 0.00 0.00 61 1016.0
20260901195208 89 287 3.0 8.0 0.00 0.00 0.00 59 1015.9
20260901194703 88 240 3.0 5.0 0.00 0.00 0.00 60 1015.7
20260901194153 90 215 4.0 5.0 0.00 0.00 0.00 59 1015.8
20260901193648 88 268 1.0 7.0 0.00 0.00 0.00 61 1015.9
20260901193142 88 249 3.0 10.0 0.00 0.00 0.00 58 1015.7
20260901192637 87 226 3.0 7.0 0.00 0.00 0.00 61 1015.8
20260901192133 89 194 5.0 8.0 0.00 0.00 0.00 58 1015.8
20260901191628 88 142 5.0 7.0 0.00 0.00 0.00 59 1015.9
20260901191125 88 218 3.0 7.0 0.00 0.00 0.00 63 1016.0
20260901190620 88 160 3.0 5.0 0.00 0.00 0.00 61 1016.0
20260901190119 88 199 4.0 8.0 0.00 0.00 0.00 62 1016.0
20260901185618 88 261 5.0 8.0 0.00 0.00 0.00 62 1016.2
20260901185116 87 220 3.0 5.0 0.00 0.00 0.00 64 1016.0
20260901184612 87 245 4.0 11.0 0.00 0.00 0.00 63 1016.1
20260901184107 87 223 6.0 8.0 0.00 0.00 0.00 64 1016.0
20260901183602 86 164 2.0 7.0 0.00 0.00 0.00 66 1016.1
20260901183057 86 68 1.0 14.0 0.00 0.00 0.00 68 1016.2
20260901182554 86 238 5.0 11.0 0.00 0.00 0.00 68 1016.4
20260901182054 86 255 4.0 7.0 0.00 0.00 0.00 67 1016.1
20260901181553 87 145 5.0 8.0 0.00 0.00 0.00 65 1015.9
20260901181052 87 256 7.0 10.0 0.00 0.00 0.00 63 1016.2
20260901180551 87 131 4.0 8.0 0.00 0.00 0.00 64 1016.2
20260901180046 87 286 4.0 8.0 0.00 0.00 0.00 65 1016.3
20260901175540 88 222 2.0 14.0 0.00 0.00 0.00 63 1016.0
20260901175034 87 313 4.0 4.0 0.00 0.00 0.00 65 1016.1
20260901174530 87 189 4.0 5.0 0.00 0.00 0.00 66 1016.1
20260901174027 87 216 2.0 5.0 0.00 0.00 0.00 65 1016.1
20260901173526 87 221 8.0 12.0 0.00 0.00 0.00 64 1016.6
20260901173022 87 274 7.0 11.0 0.00 0.00 0.00 64 1016.5
20260901172518 88 0 11.0 16.0 0.00 0.00 0.00 62 1016.6
20260901172015 88 157 6.0 10.0 0.00 0.00 0.00 63 1016.4
20260901171515 88 183 4.0 14.0 0.00 0.00 0.00 61 1016.3
20260901171014 88 246 4.0 8.0 0.00 0.00 0.00 63 1016.5
20260901170508 88 219 7.0 11.0 0.00 0.00 0.00 60 1016.6
20260901170003 88 258 8.0 10.0 0.00 0.00 0.00 60 1016.7
20260901165457 89 237 4.0 8.0 0.00 0.00 0.00 58 1016.6
20260901164953 89 241 4.0 8.0 0.00 0.00 0.00 62 1016.5
20260901164448 89 240 5.0 5.0 0.00 0.00 0.00 61 1016.6
20260901163943 89 4 2.0 10.0 0.00 0.00 0.00 60 1016.7
20260901163438 88 103 5.0 7.0 0.00 0.00 0.00 62 1016.5
20260901162937 88 266 7.0 11.0 0.00 0.00 0.00 60 1016.7
20260901162432 88 230 2.0 10.0 0.00 0.00 0.00 62 1016.7
20260901161932 88 330 3.0 11.0 0.00 0.00 0.00 60 1016.6